[[{"header":{"parameterUnit":"m.s-1","parameterCategory":1,"la1":30.2991,"la2":30.254,"lo1":-89.0895,"lo2":-89.0444,"dy":0.0017,"dx":0.0017,"nx":28,"ny":28,"refTime":"2025-02-26T09:00:00:Z","depth":0,"parameterNumber":2,"parameterNumberName":"U-component_of_WINDS"},"data":[0,0,0,0,0,0,0,0,0,0,0,0,0,0,0,0,0,0,0,0,0,0,0,0,0,0,0,0,0,0,0,0,0,0,0,0,0,0,0,0,0,0,0,0,0,0,0,0,0,0,0,0,0,0,0,0,0,0,0.1048,0.1048,0,0.1065,0.1065,0.1065,0.1041,0.104,0.1039,0.1038,0.1056,0.1057,0.1058,0,0,0,0,0,0,0,0,0,0,0,0,0,0.0994,0.0995,0.1048,0.1048,0.1048,0.1065,0.1065,0.1065,0.1041,0.104,0.1039,0.1038,0.1055,0.1057,0.1058,0,0,0,0,0,0,0,0,0,0,0,0,0,0.1015,0.0995,0.1048,0.1038,0.1037,0.1065,0.1065,0.1065,0.1041,0.104,0.1038,0.1037,0.1055,0.1057,0.1058,0.1097,0,0,0.1064,0.1065,0,0,0,0,0,0,0,0,0.1014,0.1017,0.1039,0.1039,0.1038,0.1049,0.1053,0.1076,0.1041,0.104,0.1038,0.1036,0.1055,0.1056,0.1062,0.1097,0.1098,0.1064,0.1066,0.1066,0.1067,0,0,0,0,0,0,0,0.1012,0.1016,0.1055,0.104,0.1039,0.1033,0.1034,0.1057,0.1054,0.104,0.1038,0.104,0.1054,0.1061,0.1063,0.1098,0.1064,0.1066,0.1067,0.1068,0.1166,0.1168,0,0,0,0,0,0,0.1012,0.1015,0.1054,0.1055,0.1022,0.1035,0.1036,0.1047,0.1054,0.1054,0.1041,0.1039,0.1058,0.106,0.1063,0.1109,0.1066,0.1068,0.1069,0.1165,0.1167,0.1168,0,0,0,0,0,0,0.1011,0.1016,0.1053,0.1035,0.1039,0.1037,0.1049,0.1048,0.1055,0.1055,0.1055,0.1049,0.1057,0.1061,0.1089,0.111,0.1069,0.1071,0.1163,0.1165,0.1167,0.1202,0,0,0,0,0,0,0.1009,0.1015,0.103,0.1035,0.104,0.1079,0.105,0.1049,0.1058,0.1055,0.1062,0.1062,0.1056,0.1086,0.1091,0.1112,0.1072,0.1161,0.1164,0.1167,0.1199,0.1205,0.121,0,0,0,0,0,0.1008,0.1039,0.1031,0.1036,0.1058,0.108,0.1083,0.1076,0.106,0.1075,0.1075,0.1062,0.1106,0.1089,0.1094,0.1116,0.116,0.1163,0.1166,0.1196,0.1203,0.121,0,0,0,0,0,0,0.1036,0.1039,0.1031,0.1064,0.1072,0.1076,0.1094,0.1084,0.1096,0.1093,0.1084,0.1085,0.1116,0.1118,0.1099,0.1154,0.113,0.1135,0.1151,0.1158,0.1164,0.1163,0.1074,0,0,0,0,0,0.1046,0.1064,0.1065,0.1095,0.1099,0.1096,0.1105,0.1099,0.1107,0.111,0.1112,0.112,0.1136,0.1147,0.1162,0.1198,0.12,0.1216,0.1221,0.1226,0.123,0.1251,0.1258,0.1179,0.1179,0.1179,0,0,0.1068,0.1071,0.1083,0.1101,0.1106,0.1125,0.1099,0.112,0.1134,0.1113,0.1141,0.1142,0.1151,0.1183,0.1198,0.1186,0.1252,0.123,0.1234,0.1236,0.1255,0.1263,0.1269,0.1181,0.1181,0.118,0,0,0.1117,0.1121,0.1146,0.1152,0.1161,0.1158,0.1164,0.117,0.117,0.1197,0.1183,0.1199,0.1226,0.1233,0.124,0.1291,0.128,0.1296,0.1326,0.1346,0.1353,0.1358,0.1378,0.1385,0.13,0.13,0.13,0,0.1142,0.117,0.1161,0.1183,0.1191,0.1174,0.12,0.1206,0.1219,0.1225,0.1212,0.1246,0.125,0.1285,0.1297,0.1303,0.1311,0.1296,0.1352,0.1358,0.1363,0.1382,0.1389,0.1302,0.1302,0.1302,0.1301,0,0.1202,0.1221,0.124,0.1254,0.1264,0.1288,0.1283,0.1295,0.1287,0.1286,0.1314,0.1319,0.1334,0.1341,0.1334,0.1376,0.1368,0.1354,0.1331,0.1373,0.139,0.1397,0.1305,0.1304,0.1304,0.1303,0,0,0.127,0.1278,0.1285,0.1292,0.1299,0.1314,0.1337,0.1352,0.1363,0.1372,0.1392,0.1415,0.1402,0.141,0.1403,0.1421,0.1463,0.1404,0.1404,0.1417,0.151,0.1523,0.1531,0.1455,0.1456,0.1457,0.151,0,0.132,0.1361,0.1353,0.1393,0.1411,0.1394,0.1414,0.1421,0.1421,0.1436,0.1435,0.1453,0.1433,0.1438,0.1454,0.1455,0.1482,0.145,0.1474,0.1475,0.1475,0.154,0.1553,0.1603,0.1517,0.1518,0.1519,0,0.1384,0.1396,0.1438,0.1443,0.1451,0.1469,0.1483,0.1497,0.1505,0.1503,0.1512,0.1503,0.1526,0.1501,0.1533,0.1512,0.1521,0.1523,0.1524,0.1528,0.1501,0.1547,0.1618,0.1626,0.1529,0.1528,0.1527,0,0.1432,0.1458,0.1487,0.1492,0.1499,0.1513,0.1516,0.1522,0.1532,0.1544,0.1551,0.1565,0.1573,0.1584,0.1578,0.1561,0.1612,0.1587,0.1613,0.1613,0.1626,0.1626,0.1702,0.1629,0.1629,0.1628,0.1628,0,0.149,0.1516,0.1509,0.1527,0.1556,0.1547,0.1576,0.1577,0.1583,0.1601,0.1586,0.1603,0.1594,0.161,0.1606,0.1634,0.1637,0.1637,0.1636,0.164,0.164,0.1647,0.1644,0.163,0.163,0.163,0.1629,0,0.1549,0.1545,0.1575,0.1579,0.1581,0.1602,0.1606,0.1622,0.162,0.1643,0.1648,0.1645,0.1664,0.1659,0.1679,0.1676,0.1712,0.1705,0.171,0.1709,0.1736,0.1734,0.1821,0.1832,0.175,0.1751,0.1751,0,0.1587,0.1607,0.1614,0.1625,0.1629,0.1647,0.1657,0.1649,0.166,0.167,0.1686,0.1703,0.1717,0.1747,0.1747,0.1762,0.1757,0.1786,0.1759,0.1763,0.176,0.1759,0.1762,0.1792,0.1793,0.1794,0.1795,0,0.1656,0.1653,0.1668,0.1683,0.1695,0.1706,0.1716,0.1726,0.1718,0.1731,0.175,0.1761,0.1781,0.1799,0.1813,0.1817,0.1805,0.1803,0.181,0.1815,0.1817,0.1818,0.1727,0.1801,0.1801,0.18,0.18,0.18,0.1707,0.1724,0.1732,0.1749,0.1756,0.1765,0.1781,0.1782,0.1797,0.1814,0.1807,0.1829,0.1837,0.1854,0.186,0.1877,0.1866,0.1876,0.1879,0.1882,0.1886,0.1813,0.1879,0.1879,0.1879,0.1879,0.1879,0,0.1776,0.178,0.1796,0.181,0.1824,0.1811,0.1821,0.1834,0.1854,0.1862,0.1875,0.1898,0.1915,0.1916,0.1932,0.1946,0.1941,0.195,0.195,0.1951,0.1894,0.1887,0.1954,0.1954,0.1954,0.1954,0.1954,0.1954,0.1814,0.1843,0.1841,0.1873,0.1877,0.1899,0.1906,0.1915,0.1921,0.1947,0.1961,0.1961,0.1967,0.1983,0.1998,0.1998,0.2006,0.2018,0.2016,0.1963,0.1955,0.1948,0.1942,0.2019,0.2019,0.2072,0.2072,0.2072]},{"header":{"parameterUnit":"m.s-1","parameterCategory":1,"la1":30.2991,"la2":30.254,"lo1":-89.0895,"lo2":-89.0444,"dy":0.0017,"dx":0.0017,"nx":28,"ny":28,"refTime":"2025-02-26T09:00:00:Z","depth":0,"parameterNumber":3,"parameterNumberName":"V-component_of_WINDS"},"data":[0,0,0,0,0,0,0,0,0,0,0,0,0,0,0,0,0,0,0,0,0,0,0,0,0,0,0,0,0,0,0,0,0,0,0,0,0,0,0,0,0,0,0,0,0,0,0,0,0,0,0,0,0,0,0,0,0,0,2.2294,2.2294,0,2.2326,2.2327,2.2327,2.2299,2.2298,2.2296,2.2295,2.2325,2.2326,2.2328,0,0,0,0,0,0,0,0,0,0,0,0,0,2.2204,2.2206,2.2294,2.2294,2.2295,2.2326,2.2327,2.2327,2.2299,2.2297,2.2296,2.2295,2.2324,2.2326,2.2328,0,0,0,0,0,0,0,0,0,0,0,0,0,2.2241,2.2207,2.2294,2.2285,2.2284,2.2326,2.2327,2.2327,2.2299,2.2297,2.2296,2.2294,2.2323,2.2326,2.2329,2.238,0,0,2.2337,2.2338,0,0,0,0,0,0,0,0,2.2239,2.2244,2.2285,2.2285,2.2285,2.2307,2.2306,2.2345,2.23,2.2293,2.2295,2.2293,2.232,2.2323,2.2333,2.2382,2.2383,2.2338,2.2339,2.234,2.2341,0,0,0,0,0,0,0,2.2236,2.2242,2.2306,2.2286,2.2286,2.2278,2.2281,2.2313,2.2316,2.2294,2.2292,2.2296,2.2319,2.233,2.2333,2.2384,2.2337,2.234,2.2342,2.2343,2.2478,2.248,0,0,0,0,0,0,2.2235,2.224,2.2305,2.2307,2.2257,2.2281,2.2284,2.2301,2.2315,2.2316,2.2298,2.2295,2.2326,2.233,2.2334,2.2397,2.234,2.2343,2.2345,2.2476,2.2478,2.248,0,0,0,0,0,0,2.2233,2.2241,2.2304,2.2273,2.2281,2.2284,2.2303,2.2303,2.2314,2.2318,2.2318,2.2308,2.2325,2.233,2.237,2.2397,2.2344,2.2347,2.2474,2.2477,2.2479,2.2522,0,0,0,0,0,0,2.2231,2.2241,2.2261,2.2274,2.2283,2.2341,2.2305,2.2305,2.2319,2.2315,2.2328,2.2329,2.2324,2.2366,2.2372,2.24,2.2349,2.2471,2.2475,2.2478,2.2518,2.2526,2.2533,0,0,0,0,0,2.2228,2.2271,2.2262,2.227,2.2309,2.2342,2.2347,2.2342,2.2321,2.2342,2.2345,2.2328,2.2393,2.237,2.2377,2.2406,2.2469,2.2474,2.2478,2.2515,2.2524,2.2532,0,0,0,0,0,0,2.2259,2.2272,2.2263,2.2312,2.2326,2.2337,2.2363,2.2351,2.2371,2.2367,2.2358,2.2361,2.2403,2.2408,2.2383,2.2457,2.2428,2.2434,2.2453,2.2462,2.2469,2.2468,2.2351,0,0,0,0,0,2.2272,2.23,2.2309,2.2351,2.2359,2.236,2.2374,2.2369,2.2383,2.2388,2.2394,2.2408,2.2431,2.2446,2.2468,2.2518,2.2521,2.2541,2.2549,2.2555,2.256,2.2588,2.2598,2.2495,2.2494,2.2494,0,0,2.2298,2.2309,2.2327,2.2358,2.2368,2.2396,2.2365,2.2395,2.2416,2.2392,2.2431,2.2436,2.245,2.2496,2.2516,2.2501,2.259,2.256,2.2565,2.2567,2.2594,2.2604,2.2612,2.2497,2.2497,2.2496,0,0,2.2362,2.2372,2.2409,2.2421,2.2438,2.2438,2.2447,2.246,2.2463,2.2502,2.2485,2.2508,2.2548,2.256,2.2571,2.2639,2.2625,2.2646,2.2684,2.2711,2.272,2.2727,2.2753,2.2762,2.2651,2.2651,2.2651,0,2.2392,2.2435,2.2429,2.2462,2.2476,2.2457,2.2495,2.2505,2.2528,2.2538,2.2521,2.2572,2.258,2.2629,2.2645,2.2654,2.2664,2.2645,2.2719,2.2726,2.2733,2.2757,2.2767,2.2654,2.2653,2.2653,2.2653,0,2.2472,2.2502,2.253,2.2554,2.2571,2.2606,2.2604,2.2622,2.2615,2.2617,2.2657,2.2666,2.269,2.27,2.2693,2.2748,2.2739,2.2721,2.2691,2.2746,2.2768,2.2778,2.2657,2.2656,2.2656,2.2655,0,0,2.2557,2.2579,2.2589,2.26,2.2618,2.264,2.2673,2.2698,2.2714,2.273,2.2758,2.2793,2.2777,2.2789,2.2783,2.2806,2.2862,2.2785,2.2786,2.2801,2.2924,2.2939,2.295,2.2852,2.2853,2.2855,2.2924,0,2.2622,2.2683,2.2679,2.2735,2.2763,2.2745,2.2774,2.2788,2.279,2.2813,2.2815,2.2841,2.2817,2.2824,2.2847,2.285,2.2886,2.2845,2.2878,2.2879,2.2877,2.2962,2.2978,2.3042,2.2932,2.2934,2.2935,0,2.2707,2.2728,2.2788,2.2802,2.2814,2.284,2.2863,2.2885,2.29,2.29,2.2915,2.2904,2.2937,2.2906,2.2952,2.2923,2.2936,2.294,2.2942,2.2947,2.2912,2.297,2.3062,2.3073,2.2949,2.2947,2.2946,0,2.2765,2.2808,2.285,2.286,2.2877,2.2896,2.2904,2.2917,2.2933,2.2952,2.2962,2.2984,2.2996,2.3013,2.3009,2.2986,2.3056,2.3024,2.3058,2.3058,2.3075,2.3074,2.3172,2.308,2.308,2.308,2.308,0,2.2839,2.2877,2.2876,2.2902,2.2944,2.2938,2.2979,2.2984,2.2996,2.3022,2.3007,2.3031,2.3024,2.3047,2.3044,2.3083,2.3088,2.3089,2.3088,2.3092,2.3092,2.3102,2.3098,2.3082,2.3082,2.3081,2.3081,0,2.2912,2.2913,2.2958,2.2971,2.2975,2.3005,2.3016,2.304,2.3041,2.3075,2.3082,2.3084,2.3111,2.3108,2.3138,2.3136,2.3185,2.3178,2.3181,2.318,2.3215,2.3213,2.3324,2.3339,2.3236,2.3237,2.3237,0,2.2961,2.299,2.3006,2.3024,2.3034,2.3061,2.3077,2.3072,2.3089,2.3108,2.313,2.3157,2.3178,2.3222,2.3226,2.3249,2.3243,2.328,2.3246,2.3249,2.3245,2.3245,2.3248,2.3288,2.3289,2.329,2.329,0,2.3047,2.3046,2.3071,2.3097,2.3117,2.3136,2.3153,2.3168,2.3164,2.3184,2.3213,2.3229,2.3261,2.3288,2.331,2.3316,2.3303,2.3301,2.331,2.3315,2.3317,2.3318,2.3202,2.3299,2.3298,2.3297,2.3297,2.3297,2.311,2.3136,2.3152,2.3181,2.3193,2.321,2.3234,2.3239,2.3264,2.329,2.3285,2.3318,2.3331,2.336,2.3369,2.3394,2.338,2.3393,2.3397,2.3401,2.3406,2.3312,2.3397,2.3397,2.3397,2.3397,2.3397,0,2.3198,2.3208,2.3234,2.326,2.3282,2.3268,2.3287,2.3306,2.3336,2.335,2.3372,2.3405,2.3431,2.3437,2.3461,2.348,2.3475,2.3487,2.3486,2.3488,2.3416,2.3406,2.3491,2.3491,2.3491,2.3491,2.3491,2.3491,2.3246,2.3289,2.329,2.334,2.3348,2.3382,2.3394,2.3409,2.3421,2.346,2.3482,2.3486,2.3497,2.3522,2.3545,2.3546,2.3556,2.3572,2.357,2.3503,2.3493,2.3484,2.3475,2.3573,2.3573,2.3641,2.3642,2.3642]}]]